Regional Weather Roundup
Issued by NWS

Home | Current Version | Previous Version | Graphics & Text | Print | Product List | Glossary On
Versions: 1 2 3 4 5 6 7 8 9 10 11 12 13 14 15 16 17 18 19 20 21 22 23 24 25 26 27 28 29 30 31 32 33 34 35 36 37 38 39 40 41 42 43 44 45 46 47 48 49 50
000
ASUS43 KLOT 290310
RWRIL

ILLINOIS REGIONAL WEATHER ROUNDUP
NATIONAL WEATHER SERVICE CHICAGO/ROMEOVILLE IL
900 PM CST WED JAN 28 2015

NOTE: "FAIR" INDICATES FEW OR NO CLOUDS BELOW 12,000 FEET WITH NO
SIGNIFICANT WEATHER AND/OR OBSTRUCTIONS TO VISIBILITY.

* THESE STATIONS ARE NOT UNDER NWS QUALITY CONTROL. THEY ALSO MAY NOT
  REPORT WEATHER SUCH AS PRECIPITATION OR FOG.

ILZ001-002-007-009-015-016-024-290400-
NORTHWEST ILLINOIS

CITY           SKY/WX    TMP DP  RH WIND       PRES   REMARKS
MOLINE         CLOUDY    37  30  75 SE10      29.77F WCI  30
STERLING*      CLOUDY    36  28  75 SE9       29.82F WCI  29
SAVANNA*       CLOUDY    34  30  83 SE10      29.81F WCI  26
$$

ILZ003-004-008-010-011-017-018-290400-
NORTH CENTRAL ILLINOIS

CITY           SKY/WX    TMP DP  RH WIND       PRES   REMARKS
ROCKFORD       CLOUDY    32  24  72 SE14      29.89F WCI  22
FREEPORT*      CLOUDY    32  27  83 SE10      29.86F WCI  23
ROCHELLE*      CLOUDY    32  27  80 S22G30    29.86F WCI  19
DE KALB*       MOCLDY    31  23  73 S21G30    29.87F WCI  18
PERU*          CLOUDY    35  30  81 S17       29.87F WCI  25
$$

ILZ005-006-012>014-019>023-290400-
NORTHEAST ILLINOIS

CITY           SKY/WX    TMP DP  RH WIND       PRES   REMARKS
CHICAGO-OHARE  CLOUDY    32  20  61 S16G23    29.91S WCI  21
CHICAGO-MIDWAY CLOUDY    35  20  54 S16G23    29.92F WCI  25
AURORA         MOCLDY    34  22  61 S18G25    29.90S WCI  23
LANSING*       CLOUDY    33  21  60 S17G23    29.93F WCI  22
JOLIET*        MOCLDY    33  22  65 S12       29.94R WCI  24
WAUKEGAN       CLOUDY    31  21  66 S9        29.92R WCI  23
DUPAGE AIRPORT MOCLDY    32  22  66 S18       29.90S WCI  20
KANKAKEE*      MOCLDY    33  24  68 SE14G21   29.93F WCI  24
WHEELING       MOCLDY    32  20  61 S12       29.94S WCI  23
MORRIS*        MOCLDY    34  26  73 S15G24    29.91R WCI  24
ROMEOVILLE*    MOCLDY    32  23  68 S15       29.92R WCI  22
NORTHERLY ISL    N/A     33  19  56 S14         N/A  WCI  23
$$

LMZ740>746-290400-
SOUTHERN LAKE MICHIGAN

STATION/POSITION SKY/WX   TEMP    WIND        PRES    VSBY  WAVE
                          AIR SEA DIR/SP/G                  HT/PER
                          (F)     (DEG/KT/KT) (MB)    (MI)  (FT/S)
WAUKEGAN HARBOR            32     170/ 17/ 21   N/A
HARRISON CRIB              33     170/ 26/ 31   N/A
BURNHAM HARBOR             34     160/ 11/ 18   N/A
CALUMET HARBOR             34     160/ 15/ 24   N/A
MICHIGAN CITY              32     130/ 19/ 27   N/A
$$

ILZ025>027-034>036-040-047-049-050-058-095>099-290400-
WEST-CENTRAL ILLINOIS

CITY           SKY/WX    TMP DP  RH WIND       PRES   REMARKS
QUINCY         CLOUDY    46  32  58 S15       29.76S
GALESBURG*     CLOUDY    38  32  80 SE12G18   29.79F WCI  30
MACOMB*        CLOUDY    39  33  80 S16       29.81F WCI  30
JACKSONVILLE*  CLOUDY    44  34  68 S15G26    29.83F
PITTSFIELD*    CLOUDY    45  34  64 S18       29.81F
$$

ILZ028>032-037-038-041>044-048-051>054-059>061-290400-
CENTRAL ILLINOIS

CITY           SKY/WX    TMP DP  RH WIND       PRES   REMARKS
PONTIAC        CLOUDY    36  28  75 S22       29.90F WCI  24
BLOOMINGTON    MOCLDY    35  29  79 S25G33    29.88F WCI  22
DECATUR        MOCLDY    37  27  67 S22G33    29.90F WCI  26
PEORIA         CLOUDY    39  31  72 S20G28    29.85F WCI  29
LACON*         LGT RAIN  37  29  75 S13G18    29.87S WCI  28
LINCOLN*       CLOUDY    38  32  77 S14G21    29.90S WCI  30
SPRINGFIELD    CLOUDY    41  31  67 S21G29    29.88F
TAYLORVILLE    CLOUDY    37  30  75 S21G29    29.88F WCI  27
$$

ILZ033-039-045-046-055>057-062-063-290400-
EAST-CENTRAL ILLINOIS

CITY           SKY/WX    TMP DP  RH WIND       PRES   REMARKS
CHAMPAIGN      MOCLDY    35  25  66 SE22G30   29.94F WCI  23
DANVILLE*      MOCLDY    34  22  61 S14G20    29.94F WCI  24
RANTOUL*       MOCLDY    36  27  69 S16G24    29.94F WCI  26
MATTOON        PTCLDY    36  23  59 S23G31    29.94F WCI  24
PARIS*         MOCLDY    35  25  65 SE16G25   29.99F WCI  25
$$

ILZ079-100>102-290400-
SOUTHWEST ILLINOIS

CITY           SKY/WX    TMP DP  RH WIND       PRES   REMARKS
ALTON          CLEAR     43  32  65 S15G23    29.91F
BELLEVILLE     MOCLDY    42  33  71 S8        29.93F
CAHOKIA*       CLOUDY    44  34  67 S10       29.90F
SPARTA*        MOCLDY    44  31  62 S15G21    29.96F
$$

ILZ064>066-069>071-074>076-080>082-084>086-088>090-092>094-290400-
SOUTH-CENTRAL ILLINOIS

CITY           SKY/WX    TMP DP  RH WIND       PRES   REMARKS
CARBONDALE     PTCLDY    44  29  55 S14       30.00F
CAIRO*         MOCLDY    46  32  59 SE9       30.03F
EFFINGHAM*     MOCLDY    38  24  55 SE12      29.99R WCI  31
MARION         PTCLDY    46  30  53 S14G22    30.01F
MT. VERNON     PTCLDY    39  28  65 S8        30.00S WCI  34
CENTRALIA*     FAIR      41  29  62 S14       29.97R
SALEM*         MOCLDY    43  30  61 S10G16    29.98R
METROPOLIS*    MOCLDY    43  31  62 SE6       30.04F
$$

ILZ067-068-072-073-078-083-087-091-290400-
SOUTHEAST ILLINOIS

CITY           SKY/WX    TMP DP  RH WIND       PRES   REMARKS
LAWRENCEVILLE  MOCLDY    37  24  59 SE15      30.03F WCI  28
FLORA*         MOCLDY    38  28  67 S16       29.99F WCI  29
FAIRFIELD*     MOCLDY    40  28  62 SE13      30.00F
HARRISBURG*    MOCLDY    40  31  68 SE8       30.03F
ROBINSON*      MOCLDY    36  23  59 SE14      30.02F WCI  27
CARMI*         MOCLDY    39  31  72 SE13      30.03F WCI  32
$$

ABBREVIATIONS USED IN REMARKS
   TC - TEMPERATURE IN CELSIUS
  WCI - WIND CHILL INDEX
   HX - HEAT INDEX
  VSB - VISIBILITY
$$



USA.gov is the U.S. government's official web portal to all federal, state and local government web resources and services.